LONGJIANG 2 (43472 NORAD) Tracking and Keplerian Element Data

This shows tracking and keplerian element data for the satellite.

Feedback or suggestion? Click here.




ElementValue
Catalog43472
NameLONGJIANG 2
Epoch Orbit1
Epoch Day140.97000001
Epoch Year2018
RAAN209.521
Inclination27.502
Eccentricity0.9658153
Argument of Perigee171.224
Mean Anonmoly2.096
Mean Motion0.09844104
Decay Rate-0.00010094
L11 43472U 18045C 18140.97000001 -.00010094 00000-0 00000-0 0 9994
L22 43472 27.5020 209.5210 9658153 171.2240 2.0960 0.09844104 19



Live tracking and technical data element details for LONGJIANG 2 (NORAD 43472). LONGJIANG 2 can be tracked NOW for your location showing map with azimuth and elevation plus other details from your city location.







IsCatalogInMostPopularTable: catalog: 43472, numindb: 633
Update: records affected: 1



GetName: 43472 LONGJIANG 2

Hit Count: updated at: Sat, 17 May 2025 08:51:29 GMT